FW7131 Weather Reports


Display with metric or nautical units.
time (UTC)temp
F
wind
direction
speed
MPH
gust
MPH
rain 1hr
in
rain 24hr
in
rain mn
in
humidity
%
barometer
mb
20210417061126 64 181 1.0 1.0 0.00 0.00 0.00 19 1011.8
20210417060629 65 181 1.0 1.0 0.00 0.00 0.00 19 1011.9
20210417060222 65 181 0.0 1.0 0.00 0.00 0.00 19 1011.8
20210417060104 65 181 1.0 1.0 0.00 0.00 0.00 19 1011.6
20210417055326 65 181 1.0 2.0 0.00 0.00 0.00 19 1011.7
20210417054626 66 181 0.0 2.0 0.00 0.00 0.00 19 1011.7
20210417054125 66 182 2.0 2.0 0.00 0.00 0.00 18 1011.7
20210417053639 66 182 0.0 2.0 0.00 0.00 0.00 18 1011.7
20210417053302 66 182 1.0 1.0 0.00 0.00 0.00 18 1011.6
20210417053028 66 182 0.0 1.0 0.00 0.00 0.00 18 1011.7
20210417052619 67 182 1.0 1.0 0.00 0.00 0.00 19 1011.6
20210417051632 67 182 1.0 1.0 0.00 0.00 0.00 19 1011.7
20210417051135 67 182 1.0 2.0 0.00 0.00 0.00 19 1011.6
20210417050625 67 182 1.0 2.0 0.00 0.00 0.00 19 1011.6
20210417050133 67 182 1.0 1.0 0.00 0.00 0.00 18 1011.6
20210417045918 68 182 0.0 2.0 0.00 0.00 0.00 18 1011.5
20210417045650 68 182 0.0 2.0 0.00 0.00 0.00 20 1011.5
20210417044636 68 182 0.0 2.0 0.00 0.00 0.00 19 1011.4
20210417044124 68 182 0.0 2.0 0.00 0.00 0.00 19 1011.5
20210417043625 68 182 0.0 2.0 0.00 0.00 0.00 20 1011.4
20210417043124 68 190 1.0 3.0 0.00 0.00 0.00 20 1011.4
20210417042806 68 190 0.0 3.0 0.00 0.00 0.00 18 1011.4
20210417042307 68 313 2.0 2.0 0.00 0.00 0.00 18 1011.4
20210417041628 69 312 1.0 1.0 0.00 0.00 0.00 18 1011.3
20210417041123 69 312 0.0 1.0 0.00 0.00 0.00 17 1011.3
20210417040622 69 312 0.0 2.0 0.00 0.00 0.00 17 1011.4
20210417040144 69 312 0.0 2.0 0.00 0.00 0.00 17 1011.3
20210417035740 70 312 0.0 1.0 0.00 0.00 0.00 16 1011.0
20210417035253 70 312 0.0 1.0 0.00 0.00 0.00 16 1011.0
20210417034624 70 312 0.0 1.0 0.00 0.00 0.00 16 1011.0
20210417034121 70 312 0.0 1.0 0.00 0.00 0.00 16 1010.9
20210417033629 71 312 0.0 2.0 0.00 0.00 0.00 16 1010.9
20210417033123 71 312 0.0 2.0 0.00 0.00 0.00 16 1010.9
20210417032728 71 311 0.0 1.0 0.00 0.00 0.00 15 1010.9
20210417032231 71 311 0.0 1.0 0.00 0.00 0.00 16 1010.9
20210417031626 72 311 0.0 1.0 0.00 0.00 0.00 16 1010.9
20210417031123 72 311 0.0 1.0 0.00 0.00 0.00 15 1010.8
20210417030620 72 311 0.0 1.0 0.00 0.00 0.00 15 1010.8
20210417030126 73 311 0.0 1.0 0.00 0.00 0.00 14 1010.8
20210417025800 73 311 0.0 0.0 0.00 0.00 0.00 14 1010.4
20210417025345 73 311 0.0 1.0 0.00 0.00 0.00 14 1010.4
20210417024634 74 311 0.0 1.0 0.00 0.00 0.00 13 1010.5
20210417024119 74 311 0.0 0.0 0.00 0.00 0.00 13 1010.4
20210417023619 75 311 0.0 0.0 0.00 0.00 0.00 13 1010.4
20210417023121 75 311 0.0 0.0 0.00 0.00 0.00 12 1010.4
20210417022823 76 311 0.0 1.0 0.00 0.00 0.00 12 1010.5
20210417022421 76 311 0.0 1.0 0.00 0.00 0.00 12 1010.5
20210417021634 76 311 1.0 2.0 0.00 0.00 0.00 11 1010.4
20210417021127 77 311 0.0 3.0 0.00 0.00 0.00 11 1010.4
20210417020618 77 312 2.0 3.0 0.00 0.00 0.00 11 1010.3
20210417020124 78 277 0.0 5.0 0.00 0.00 0.00 11 1010.3
20210417015839 78 273 1.0 5.0 0.00 0.00 0.00 10 1009.9
20210417015328 78 257 2.0 4.0 0.00 0.00 0.00 9 1009.9
20210417014620 78 262 1.0 4.0 0.00 0.00 0.00 9 1009.9
20210417014125 78 210 2.0 3.0 0.00 0.00 0.00 10 1009.8
20210417013618 78 307 1.0 3.0 0.00 0.00 0.00 10 1009.8
20210417013123 78 292 2.0 5.0 0.00 0.00 0.00 10 1009.7
20210417012934 79 294 3.0 5.0 0.00 0.00 0.00 10 1009.8
20210417012554 79 305 2.0 4.0 0.00 0.00 0.00 10 1009.8
20210417011624 79 294 4.0 4.0 0.00 0.00 0.00 10 1009.8
20210417011116 79 303 3.0 4.0 0.00 0.00 0.00 10 1009.8
20210417010617 79 281 2.0 4.0 0.00 0.00 0.00 9 1009.7
20210417010236 79 295 1.0 4.0 0.00 0.00 0.00 10 1009.7
20210417005939 80 277 3.0 6.0 0.00 0.00 0.00 10 1009.3
20210417005535 80 287 1.0 6.0 0.00 0.00 0.00 9 1009.5
20210417004616 80 291 4.0 5.0 0.00 0.00 0.00 10 1009.4
20210417004120 80 275 2.0 6.0 0.00 0.00 0.00 10 1009.4
20210417003619 80 284 2.0 6.0 0.00 0.00 0.00 9 1009.5
20210417003127 80 271 3.0 6.0 0.00 0.00 0.00 10 1009.4
20210417002841 80 259 0.0 6.0 0.00 0.00 0.00 10 1009.4
20210417002535 81 277 1.0 5.0 0.00 0.00 0.00 9 1009.4
20210417001624 81 296 3.0 8.0 0.00 0.00 0.00 9 1009.5
20210417001115 81 316 3.0 8.0 0.00 0.00 0.00 9 1009.6
20210417000630 82 291 2.0 7.0 0.00 0.00 0.00 8 1009.5
20210417000237 82 333 2.0 8.0 0.00 0.00 0.00 8 1009.5
20210416235932 83 286 7.0 8.0 0.00 0.00 0.00 9 1009.9
20210416235542 83 256 3.0 7.0 0.00 0.00 0.00 8 1009.9
20210416234620 83 274 2.0 7.0 0.00 0.00 0.00 8 1010.0
20210416234117 83 284 2.0 7.0 0.00 0.00 0.00 8 1009.9
20210416233614 83 279 3.0 7.0 0.00 0.00 0.00 8 1009.9
20210416233115 83 273 4.0 7.0 0.00 0.00 0.00 8 1010.0
20210416232859 83 300 2.0 6.0 0.00 0.00 0.00 9 1010.0
20210416232444 83 161 0.0 6.0 0.00 0.00 0.00 8 1009.9
20210416231616 83 217 6.0 7.0 0.00 0.00 0.00 8 1010.0
20210416231113 83 307 2.0 9.0 0.00 0.00 0.00 9 1009.9
20210416230615 83 317 1.0 9.0 0.00 0.00 0.00 8 1010.0
20210416230244 83 274 0.0 9.0 0.00 0.00 0.00 9 1010.1
20210416225946 83 212 5.0 8.0 0.00 0.00 0.00 8 1009.9
20210416225441 83 256 4.0 8.0 0.00 0.00 0.00 8 1010.0
20210416224619 83 309 4.0 6.0 0.00 0.00 0.00 10 1010.0
20210416224116 83 263 2.0 7.0 0.00 0.00 0.00 9 1010.0
20210416223614 82 265 6.0 11.0 0.00 0.00 0.00 10 1010.0
20210416223116 82 196 1.0 11.0 0.00 0.00 0.00 8 1010.1
20210416222927 82 263 9.0 10.0 0.00 0.00 0.00 9 1010.2
20210416222638 82 265 4.0 10.0 0.00 0.00 0.00 9 1010.2
20210416221615 82 206 1.0 8.0 0.00 0.00 0.00 9 1010.1
20210416221113 82 245 2.0 8.0 0.00 0.00 0.00 8 1010.3
20210416220625 82 302 4.0 4.0 0.00 0.00 0.00 10 1010.4
20210416220137 81 194 1.0 7.0 0.00 0.00 0.00 10 1010.3
20210416215944 81 244 1.0 7.0 0.00 0.00 0.00 9 1010.5
20210416215535 80 26 0.0 5.0 0.00 0.00 0.00 9 1010.4
20210416214611 80 38 1.0 7.0 0.00 0.00 0.00 8 1010.5
20210416214113 80 250 3.0 8.0 0.00 0.00 0.00 10 1010.5
20210416213616 81 284 3.0 9.0 0.00 0.00 0.00 9 1010.7
20210416213112 81 228 4.0 9.0 0.00 0.00 0.00 10 1010.7
20210416212821 81 315 5.0 6.0 0.00 0.00 0.00 9 1010.7
20210416212450 81 150 2.0 7.0 0.00 0.00 0.00 9 1010.8
20210416211616 81 292 4.0 9.0 0.00 0.00 0.00 10 1010.8
20210416211109 81 223 1.0 9.0 0.00 0.00 0.00 9 1010.8
20210416210610 81 52 1.0 6.0 0.00 0.00 0.00 9 1010.8
20210416210109 82 233 3.0 7.0 0.00 0.00 0.00 8 1011.0
20210416205715 82 122 2.0 7.0 0.00 0.00 0.00 9 1011.1
20210416205158 82 138 2.0 7.0 0.00 0.00 0.00 9 1011.2
20210416204612 81 86 2.0 7.0 0.00 0.00 0.00 9 1011.2
20210416204110 81 194 2.0 6.0 0.00 0.00 0.00 9 1011.3
20210416203615 81 207 4.0 6.0 0.00 0.00 0.00 9 1011.3
20210416203130 81 121 3.0 6.0 0.00 0.00 0.00 10 1011.3
20210416202834 80 279 4.0 6.0 0.00 0.00 0.00 10 1011.3
20210416202359 80 196 4.0 9.0 0.00 0.00 0.00 10 1011.3
20210416201620 80 223 1.0 9.0 0.00 0.00 0.00 10 1011.4
20210416201111 80 281 9.0 9.0 0.00 0.00 0.00 10 1011.4
20210416200612 81 89 1.0 6.0 0.00 0.00 0.00 9 1011.4
20210416200128 81 94 2.0 6.0 0.00 0.00 0.00 10 1011.6
20210416200022 81 111 1.0 7.0 0.00 0.00 0.00 10 1011.8
20210416195701 81 78 2.0 7.0 0.00 0.00 0.00 10 1011.8
20210416194625 81 111 2.0 5.0 0.00 0.00 0.00 10 1011.8
20210416194111 80 216 3.0 11.0 0.00 0.00 0.00 12 1011.7
20210416193622 80 107 0.0 11.0 0.00 0.00 0.00 11 1011.7
20210416193347 80 247 3.0 7.0 0.00 0.00 0.00 11 1011.7
20210416193200 80 199 4.0 7.0 0.00 0.00 0.00 11 1011.8
20210416192932 80 198 2.0 6.0 0.00 0.00 0.00 10 1011.8
20210416191621 80 277 2.0 6.0 0.00 0.00 0.00 11 1011.9
20210416191109 80 194 3.0 4.0 0.00 0.00 0.00 11 1011.8
20210416190609 80 179 2.0 7.0 0.00 0.00 0.00 11 1012.0
20210416190144 79 290 2.0 7.0 0.00 0.00 0.00 11 1012.0
20210416185755 79 238 4.0 8.0 0.00 0.00 0.00 11 1012.2
20210416185110 80 136 2.0 8.0 0.00 0.00 0.00 10 1012.2
20210416184615 79 26 2.0 6.0 0.00 0.00 0.00 11 1012.2
20210416184107 79 212 2.0 7.0 0.00 0.00 0.00 11 1012.3
20210416183622 79 225 1.0 7.0 0.00 0.00 0.00 10 1012.4
20210416183110 79 61 0.0 3.0 0.00 0.00 0.00 10 1012.4
20210416182914 79 126 0.0 6.0 0.00 0.00 0.00 11 1012.5
20210416182538 78 267 1.0 6.0 0.00 0.00 0.00 12 1012.4
20210416181634 78 265 3.0 6.0 0.00 0.00 0.00 12 1012.5
20210416181105 79 274 2.0 6.0 0.00 0.00 0.00 11 1012.6
20210416180611 78 301 1.0 4.0 0.00 0.00 0.00 12 1012.5
20210416180104 78 234 2.0 5.0 0.00 0.00 0.00 13 1012.5
20210416175752 78 209 1.0 5.0 0.00 0.00 0.00 12 1012.7
20210416175241 79 208 1.0 6.0 0.00 0.00 0.00 11 1012.8
20210416174618 79 96 1.0 6.0 0.00 0.00 0.00 12 1012.8
20210416174106 78 103 1.0 6.0 0.00 0.00 0.00 11 1013.0
20210416173617 78 219 3.0 4.0 0.00 0.00 0.00 12 1013.0
20210416173111 78 202 2.0 4.0 0.00 0.00 0.00 12 1013.1
20210416172825 77 279 1.0 7.0 0.00 0.00 0.00 13 1013.0
20210416172520 77 147 1.0 7.0 0.00 0.00 0.00 13 1013.0
20210416171622 77 213 1.0 5.0 0.00 0.00 0.00 14 1013.0
20210416171124 77 270 2.0 5.0 0.00 0.00 0.00 12 1013.1
20210416170617 77 240 2.0 4.0 0.00 0.00 0.00 13 1013.0
20210416170117 77 97 2.0 4.0 0.00 0.00 0.00 12 1013.0
20210416165935 77 169 2.0 4.0 0.00 0.00 0.00 13 1013.2
20210416165435 76 114 1.0 4.0 0.00 0.00 0.00 15 1013.1
20210416164603 75 267 1.0 5.0 0.00 0.00 0.00 14 1013.1
20210416164103 75 209 1.0 5.0 0.00 0.00 0.00 13 1013.1
20210416163606 74 287 2.0 4.0 0.00 0.00 0.00 14 1013.1
20210416163101 74 281 1.0 4.0 0.00 0.00 0.00 15 1013.1
20210416162727 73 281 1.0 4.0 0.00 0.00 0.00 17 1013.0
20210416162252 73 231 1.0 4.0 0.00 0.00 0.00 14 1012.9
20210416161616 73 279 2.0 3.0 0.00 0.00 0.00 16 1012.9
20210416161101 73 310 1.0 4.0 0.00 0.00 0.00 15 1012.9
20210416160601 72 288 1.0 6.0 0.00 0.00 0.00 16 1013.1
20210416160100 72 292 4.0 6.0 0.00 0.00 0.00 17 1013.0
20210416155908 71 226 1.0 4.0 0.00 0.00 0.00 15 1013.0
20210416155258 71 254 2.0 3.0 0.00 0.00 0.00 15 1013.0
20210416154601 71 215 1.0 3.0 0.00 0.00 0.00 16 1012.9
20210416154101 71 263 2.0 2.0 0.00 0.00 0.00 15 1012.8
20210416153609 71 308 2.0 3.0 0.00 0.00 0.00 16 1012.8
20210416153101 71 291 2.0 3.0 0.00 0.00 0.00 16 1012.8
20210416152723 71 273 2.0 3.0 0.00 0.00 0.00 17 1012.9
20210416152256 71 295 2.0 3.0 0.00 0.00 0.00 16 1012.8
20210416151600 70 280 1.0 2.0 0.00 0.00 0.00 16 1012.8
20210416151124 70 286 1.0 2.0 0.00 0.00 0.00 16 1012.6
20210416150604 69 276 1.0 2.0 0.00 0.00 0.00 17 1012.5
20210416150313 68 355 0.0 3.0 0.00 0.00 0.00 18 1012.4
20210416145951 67 17 2.0 3.0 0.00 0.00 0.00 19 1012.4
20210416145826 66 360 2.0 3.0 0.00 0.00 0.00 21 1012.3
20210416144602 65 113 0.0 2.0 0.00 0.00 0.00 23 1012.2
20210416144100 64 113 1.0 2.0 0.00 0.00 0.00 25 1012.3
20210416143559 64 114 0.0 2.0 0.00 0.00 0.00 26 1012.2
20210416143059 64 114 0.0 2.0 0.00 0.00 0.00 26 1012.2
20210416142855 63 114 1.0 1.0 0.00 0.00 0.00 28 1012.1
20210416142448 63 121 0.0 1.0 0.00 0.00 0.00 28 1012.1
20210416141600 62 121 0.0 0.0 0.00 0.00 0.00 28 1012.1
20210416141101 62 121 0.0 1.0 0.00 0.00 0.00 28 1012.0
20210416140558 61 121 0.0 1.0 0.00 0.00 0.00 27 1011.8
20210416140243 61 121 0.0 1.0 0.00 0.00 0.00 28 1011.8
20210416140021 61 121 0.0 1.0 0.00 0.00 0.00 27 1011.8
20210416135701 60 121 0.0 1.0 0.00 0.00 0.00 28 1011.9
20210416134622 59 121 0.0 1.0 0.00 0.00 0.00 28 1011.7
20210416134218 58 121 0.0 2.0 0.00 0.00 0.00 30 1011.6
20210416133556 57 121 1.0 2.0 0.00 0.00 0.00 31 1011.5
20210416133056 56 121 0.0 1.0 0.00 0.00 0.00 30 1011.5
20210416132831 55 121 0.0 1.0 0.00 0.00 0.00 30 1011.3
20210416132536 55 121 0.0 1.0 0.00 0.00 0.00 32 1011.3
20210416131559 55 121 0.0 1.0 0.00 0.00 0.00 30 1011.2
20210416131057 55 121 0.0 1.0 0.00 0.00 0.00 30 1011.2
20210416130558 55 121 0.0 2.0 0.00 0.00 0.00 30 1011.2
20210416130118 55 121 0.0 2.0 0.00 0.00 0.00 30 1011.1
20210416125636 56 121 0.0 1.0 0.00 0.00 0.00 29 1011.1
20210416124556 56 121 0.0 2.0 0.00 0.00 0.00 29 1011.1
20210416124128 56 121 0.0 2.0 0.00 0.00 0.00 29 1011.1
20210416123627 56 121 1.0 2.0 0.00 0.00 0.00 29 1011.1
20210416123125 57 121 0.0 1.0 0.00 0.00 0.00 28 1011.2
20210416122449 58 121 0.0 1.0 0.00 0.00 0.00 27 1011.2
20210416121553 58 121 0.0 1.0 0.00 0.00 0.00 28 1011.2
20210416121147 59 121 1.0 3.0 0.00 0.00 0.00 28 1011.1
20210416120628 59 121 1.0 4.0 0.00 0.00 0.00 26 1011.1
20210416120131 60 121 3.0 4.0 0.00 0.00 0.00 24 1011.0
20210416115931 60 355 1.0 3.0 0.00 0.00 0.00 22 1011.0
20210416115703 60 5 0.0 3.0 0.00 0.00 0.00 22 1011.1
20210416114637 60 24 1.0 1.0 0.00 0.00 0.00 22 1011.1
20210416114128 60 24 0.0 2.0 0.00 0.00 0.00 21 1011.1
20210416113557 60 24 0.0 2.0 0.00 0.00 0.00 21 1011.0
20210416113123 59 24 1.0 3.0 0.00 0.00 0.00 22 1011.0
20210416112755 59 23 0.0 3.0 0.00 0.00 0.00 22 1011.0
20210416112340 58 32 1.0 3.0 0.00 0.00 0.00 24 1010.9
20210416111552 57 54 1.0 2.0 0.00 0.00 0.00 26 1011.0
20210416111124 57 54 0.0 2.0 0.00 0.00 0.00 27 1011.0
20210416110625 58 52 2.0 2.0 0.00 0.00 0.00 28 1010.9
20210416110125 58 38 1.0 2.0 0.00 0.00 0.00 28 1010.9
20210416105907 58 38 2.0 2.0 0.00 0.00 0.00 28 1011.1
20210416105427 58 20 2.0 2.0 0.00 0.00 0.00 30 1011.0
20210416104628 58 41 0.0 1.0 0.00 0.00 0.00 27 1011.1
20210416104121 58 41 0.0 1.0 0.00 0.00 0.00 27 1011.1
20210416103633 58 41 0.0 1.0 0.00 0.00 0.00 27 1011.1
20210416103206 58 41 1.0 2.0 0.00 0.00 0.00 27 1011.1
20210416102933 59 41 1.0 2.0 0.00 0.00 0.00 28 1011.2
20210416102735 59 41 0.0 1.0 0.00 0.00 0.00 28 1011.2
20210416101634 59 41 0.0 1.0 0.00 0.00 0.00 28 1011.2
20210416101120 59 41 0.0 1.0 0.00 0.00 0.00 28 1011.2
20210416100621 59 41 0.0 1.0 0.00 0.00 0.00 28 1011.3
20210416100121 59 41 0.0 1.0 0.00 0.00 0.00 26 1011.2
20210416095836 59 41 0.0 1.0 0.00 0.00 0.00 26 1011.3
20210416095438 59 41 1.0 1.0 0.00 0.00 0.00 27 1011.5
20210416094620 59 41 0.0 1.0 0.00 0.00 0.00 27 1011.4
20210416094126 59 41 0.0 1.0 0.00 0.00 0.00 27 1011.5
20210416093623 60 41 0.0 1.0 0.00 0.00 0.00 27 1011.5
20210416093124 60 41 1.0 2.0 0.00 0.00 0.00 27 1011.4
20210416092834 60 41 1.0 2.0 0.00 0.00 0.00 26 1011.4
20210416092233 60 41 2.0 4.0 0.00 0.00 0.00 26 1011.5
20210416091618 60 38 2.0 4.0 0.00 0.00 0.00 27 1011.5
20210416091118 60 20 0.0 1.0 0.00 0.00 0.00 26 1011.5
20210416090622 60 20 1.0 1.0 0.00 0.00 0.00 26 1011.5
20210416090119 60 20 0.0 1.0 0.00 0.00 0.00 26 1011.5
20210416085831 60 20 0.0 2.0 0.00 0.00 0.00 26 1011.6
20210416085447 60 20 0.0 2.0 0.00 0.00 0.00 26 1011.7
20210416084628 60 20 1.0 2.0 0.00 0.00 0.00 27 1011.7
20210416084117 60 20 0.0 2.0 0.00 0.00 0.00 27 1011.8
20210416083620 60 20 0.0 2.0 0.00 0.00 0.00 26 1011.8
20210416083118 60 20 1.0 2.0 0.00 0.00 0.00 27 1011.8
20210416082850 60 355 1.0 1.0 0.00 0.00 0.00 26 1011.8
20210416082359 60 355 0.0 1.0 0.00 0.00 0.00 26 1011.8
20210416081627 60 355 0.0 2.0 0.00 0.00 0.00 25 1011.8
20210416081118 61 355 0.0 2.0 0.00 0.00 0.00 26 1012.0
20210416080616 61 337 1.0 1.0 0.00 0.00 0.00 26 1012.0
20210416080120 61 337 1.0 1.0 0.00 0.00 0.00 26 1012.0
20210416075739 61 337 0.0 1.0 0.00 0.00 0.00 25 1012.0
20210416075326 61 337 0.0 2.0 0.00 0.00 0.00 25 1012.0
20210416074621 61 337 1.0 2.0 0.00 0.00 0.00 25 1012.0
20210416074119 61 327 0.0 1.0 0.00 0.00 0.00 26 1012.1
20210416073624 61 327 1.0 1.0 0.00 0.00 0.00 26 1012.1
20210416073121 62 327 0.0 1.0 0.00 0.00 0.00 26 1012.2
20210416072646 62 327 0.0 1.0 0.00 0.00 0.00 26 1012.1
20210416072159 62 327 1.0 1.0 0.00 0.00 0.00 25 1012.2
20210416071615 62 327 1.0 1.0 0.00 0.00 0.00 26 1012.2
20210416071115 62 327 1.0 1.0 0.00 0.00 0.00 25 1012.3
20210416070633 63 327 0.0 1.0 0.00 0.00 0.00 25 1012.3
20210416070118 63 327 0.0 1.0 0.00 0.00 0.00 25 1012.5
20210416065653 63 327 1.0 1.0 0.00 0.00 0.00 24 1012.4
20210416065257 63 327 1.0 1.0 0.00 0.00 0.00 26 1012.3
20210416064614 64 327 0.0 1.0 0.00 0.00 0.00 25 1012.4
20210416064114 64 327 1.0 1.0 0.00 0.00 0.00 25 1012.4
20210416063624 64 327 1.0 1.0 0.00 0.00 0.00 23 1012.5
20210416063142 65 327 0.0 1.0 0.00 0.00 0.00 21 1012.4
20210416062745 65 327 0.0 1.0 0.00 0.00 0.00 21 1012.4
20210416062351 65 327 0.0 1.0 0.00 0.00 0.00 21 1012.3
20210416061621 66 327 1.0 2.0 0.00 0.00 0.00 21 1012.5